Flag for Canada Weather past 2 weeks in Labrador City, Newfoundland and Labrador, Canada

Now
34 °F

Sunny.


Feels Like: 23 °F
Forecast: 26 / 43 °F
Wind: 17 mph from Northwest

Location: Wabush Lake

Current Time: May 28, 2015 at 10:28:24 PM

Latest Report: May 28, 2015 at 10:00 PM


Visibility: 15 mi

Pressure: 30.26 "Hg

Humidity: 60%

Dew point: 21 °F

Location of Labrador CityLocation

Historic Weather in Labrador City — Graph

°F

Labrador City temperature yesterday

Maximum temperature yesterday: 64 °F (at 12:00 PM)
Minimum temperature yesterday: 34 °F (at 4:00 AM)
Average temperature yesterday: 50 °F

Past Weeks' High & Low Weather Summary

 TemperatureHumidityPressure
High64 °F (May 16, 3:00 PM)100% (May 16, 3:00 AM)30.26 "Hg (May 16, 3:00 AM)
Low21 °F (May 16, 5:00 AM)30% (May 16, 2:00 PM)29.44 "Hg (May 20, 1:00 PM)
Average40 °F76%29.88 "Hg
* Reported May 13 9:00 PM — May 28 9:00 PM, Labrador City, Weather by CustomWeather, © 2015

Note: Actual official high and low records may vary slightly from our data, if they occured in-between our weather recording intervals... More about our weather records

Advertising

Labrador City weather history for previous 24 hours

 ConditionsComfort  
Time TempWeatherWind HumidityBarometerVisibility
9:00 PM
Thu, May 28
39 °FSunny.14 mph52%30.21 "Hg15 mi
8:00 PM43 °FPassing clouds.14 mph46%30.16 "Hg15 mi
7:00 PM46 °FPassing clouds.10 mph43%30.13 "Hg15 mi
6:00 PM46 °FPassing clouds.18 mph43%30.10 "Hg15 mi
5:00 PM48 °FPassing clouds.14 mph43%30.09 "Hg15 mi
4:00 PM48 °FPassing clouds.17 mph43%30.06 "Hg15 mi
3:00 PM46 °FPassing clouds.9 mph46%30.05 "Hg15 mi
2:00 PM46 °FScattered clouds.16 mph46%30.04 "Hg15 mi
1:00 PM43 °FScattered clouds.17 mph57%30.03 "Hg15 mi
12:00 PM41 °FScattered clouds.12 mph66%30.02 "Hg15 mi
11:00 AM39 °FBroken clouds.13 mph81%29.99 "Hg15 mi
10:00 AM41 °FPartly sunny.12 mph81%29.95 "Hg15 mi
9:00 AM39 °FMostly cloudy.14 mph87%29.92 "Hg15 mi
8:00 AM41 °FSprinkles. Mostly cloudy.14 mph87%29.87 "Hg15 mi
7:00 AM43 °FLight rain. Mostly cloudy.22 mph93%29.79 "Hg15 mi
6:00 AM50 °FLight rain. Overcast.14 mph94%29.72 "Hg12 mi
5:03 AM50 °FLight rain. Overcast.5 mph100%29.68 "Hg9 mi
4:00 AM52 °FLight rain. Mostly cloudy.2 mph94%29.66 "Hg9 mi
3:49 AM52 °FLight rain. Mostly cloudy.3 mph94%29.66 "Hg9 mi
3:00 AM52 °FLight rain. Fog.5 mph94%29.66 "Hg5 mi
2:56 AM52 °FLight rain. Fog.5 mph94%29.65 "Hg5 mi
2:00 AM52 °FLow clouds.3 mph94%29.65 "Hg9 mi
1:00 AM52 °FOvercast.6 mph94%29.66 "Hg9 mi
12:00 AM52 °FOvercast.7 mph94%29.65 "Hg9 mi
11:46 PM
Wed, May 27
52 °FOvercast.6 mph94%29.66 "Hg9 mi
11:02 PM52 °FLight rain. Fog.8 mph94%29.66 "Hg2 mi
10:00 PM52 °FLight rain. Fog.8 mph94%29.66 "Hg3 mi
Weather by CustomWeather, © 2015

See weather overviewHow to use our weather pages